WetterOnline ( http://www.wetteronline.de )

Wetter aktuell Kempten/Allgäu

Aktuelles Wetter: Kempten (705m)

6-stündlich | Neueste Meldungen
Ortszeit Temperatur Wetter
So, 20.01. 19:00 -4.3° C bewölkt
So, 20.01. 13:00 -0.0° C bedeckt
So, 20.01. 7:00 -12.3° C bewölkt
So, 20.01. 1:00 -13.6° C leicht bewölkt
Sa, 19.01. 19:00 -9.0° C wolkenlos
Sa, 19.01. 13:00 -3.1° C wolkig
Sa, 19.01. 7:00 -13.6° C bewölkt
Sa, 19.01. 1:00 -7.8° C bedeckt
Ortszeit Temperatur Wetter
Mo, 21.01. 0:00 -6.1° C leicht bewölkt
So, 20.01. 23:50 -6.1° C leicht bewölkt
So, 20.01. 23:40 -5.7° C leicht bewölkt
So, 20.01. 23:30 -5.4° C bewölkt
So, 20.01. 23:20 -5.4° C bewölkt
So, 20.01. 23:10 -5.5° C bewölkt
So, 20.01. 23:00 -5.4° C bewölkt
So, 20.01. 22:30 -4.7° C bewölkt
So, 20.01. 22:00 -4.5° C bedeckt
So, 20.01. 21:30 -4.2° C bedeckt
So, 20.01. 21:00 -4.6° C bedeckt
Ortszeit Relative Feuchte Sichtweite
So, 20.01. 19:00 78% 11 km
So, 20.01. 13:00 57% 19 km
So, 20.01. 7:00 85% 17 km
So, 20.01. 1:00 86% 14 km
Sa, 19.01. 19:00 80% 8 km
Sa, 19.01. 13:00 52% 6 km
Sa, 19.01. 7:00 86% 9 km
Sa, 19.01. 1:00 91% 14 km
Ortszeit Relative Feuchte Sichtweite
Mo, 21.01. 0:00 85% 11 km
So, 20.01. 23:50 85% -
So, 20.01. 23:40 86% -
So, 20.01. 23:30 87% 13 km
So, 20.01. 23:20 87% -
So, 20.01. 23:10 86% -
So, 20.01. 23:00 84% 14 km
So, 20.01. 22:30 85% 14 km
So, 20.01. 22:00 83% 14 km
So, 20.01. 21:30 79% 5.0 km
So, 20.01. 21:00 78% 14 km
Ortszeit Niederschlagsmenge Niederschlagsart
So, 20.01. 19:00 0.0 l/m2 in 12 Std. -
So, 20.01. 13:00 0.0 l/m2 in 6 Std. -
So, 20.01. 7:00 0.0 l/m2 in 12 Std. -
So, 20.01. 1:00 0.0 l/m2 in 6 Std. -
Sa, 19.01. 19:00 0.0 l/m2 in 12 Std. -
Sa, 19.01. 13:00 0.0 l/m2 in 6 Std. -
Sa, 19.01. 7:00 0.0 l/m2 in 12 Std. -
Sa, 19.01. 1:00 0.0 l/m2 in 6 Std. -
Ortszeit Niederschlagsmenge Niederschlagsart
Mo, 21.01. 0:00 0.0 l/m2 in 1 Std. -
So, 20.01. 23:50 keine Meldung -
So, 20.01. 23:40 keine Meldung -
So, 20.01. 23:30 0.0 l/m2 in 1 Std. -
So, 20.01. 23:20 keine Meldung -
So, 20.01. 23:10 keine Meldung -
So, 20.01. 23:00 0.0 l/m2 in 1 Std. -
So, 20.01. 22:30 0.0 l/m2 in 1 Std. -
So, 20.01. 22:00 0.0 l/m2 in 1 Std. -
So, 20.01. 21:30 0.0 l/m2 in 1 Std. -
So, 20.01. 21:00 0.0 l/m2 in 1 Std. -
Ortszeit Stärke Spitze Richtung
km/h Bft. km/h Grad Sektor
So, 20.01. 19:00 4 1 11 120° SO
So, 20.01. 13:00 4 1 7 340° N
So, 20.01. 7:00 4 1 7 190° S
So, 20.01. 1:00 7 2 11 110° O
Sa, 19.01. 19:00 4 1 11 100° O
Sa, 19.01. 13:00 4 1 11 130° SO
Sa, 19.01. 7:00 9 2 13 110° O
Sa, 19.01. 1:00 0 0 18 - -
Ortszeit Stärke Spitze Richtung
km/h Bft. km/h Grad Sektor
Mo, 21.01. 0:00 2 1 6 160° S
So, 20.01. 23:50 2 1 - 160° S
So, 20.01. 23:40 2 1 - 170° S
So, 20.01. 23:30 0 0 4 - -
So, 20.01. 23:20 2 1 - 160° S
So, 20.01. 23:10 4 1 - 130° SO
So, 20.01. 23:00 4 1 7 120° SO
So, 20.01. 22:30 2 1 4 90° O
So, 20.01. 22:00 4 1 7 160° S
So, 20.01. 21:30 4 1 7 120° SO
So, 20.01. 21:00 4 1 7 110° O
Ortszeit Untergrenze Bedeckung Gattung
total tief tief mittel hoch
So, 20.01. 19:00 2100 m 8/8 4/8 - - -
So, 20.01. 13:00 1500 m 8/8 8/8 - - -
So, 20.01. 7:00 3000 m 7/8 7/8 - - -
So, 20.01. 1:00 3900 m 3/8 1/8 - - -
Sa, 19.01. 19:00 - 0/8 0/8 - - -
Sa, 19.01. 13:00 6600 m 8/8 8/8 - - -
Sa, 19.01. 7:00 3900 m 7/8 6/8 - - -
Sa, 19.01. 1:00 3900 m 8/8 8/8 - - -
Ortszeit Bedeckungsgrad in Achtel und Wolkenuntergrenze
Mo, 21.01. 0:00 2(1140m)
So, 20.01. 23:50 2(1140m)
So, 20.01. 23:40 4(1140m)
So, 20.01. 23:30 7(1140m) 7(7800m)
So, 20.01. 23:20 7(1140m)
So, 20.01. 23:10 7(1170m) 7(7800m)
So, 20.01. 23:00 7(1170m) 8(3600m) 8(7800m)
So, 20.01. 22:30 7(1170m) 7(4500m) 7(7500m)
So, 20.01. 22:00 8(1140m)
So, 20.01. 21:30 8(1110m)
So, 20.01. 21:00 8(1140m) 8(5400m)
Ortszeit Luftdruck NN (hPa) Tendenz (hPa in 3 Std.)
So, 20.01. 19:00 1018 + 1,1
So, 20.01. 13:00 1015 + 0,4
So, 20.01. 7:00 1018 0,0
So, 20.01. 1:00 1019 - 0,4
Sa, 19.01. 19:00 1018 - 0,2
Sa, 19.01. 13:00 1017 - 0,9
Sa, 19.01. 7:00 1022 - 0,6
Sa, 19.01. 1:00 1020 - 1,0
Ortszeit Luftdruck NN (hPa) Tendenz (hPa in 3 Std.)
Mo, 21.01. 0:00 1021 + 1,1
So, 20.01. 23:50 1021 keine Meldung
So, 20.01. 23:40 1021 keine Meldung
So, 20.01. 23:30 1020 + 1,0
So, 20.01. 23:20 1020 keine Meldung
So, 20.01. 23:10 1020 keine Meldung
So, 20.01. 23:00 1020 + 1,0
So, 20.01. 22:30 1020 + 1,1
So, 20.01. 22:00 1020 + 1,2
So, 20.01. 21:30 1019 + 1,2
So, 20.01. 21:00 1019 + 1,2
Ortszeit Schneehöhe (cm)
So, 20.01. 19:00 24
So, 20.01. 13:00 24
So, 20.01. 7:00 24
So, 20.01. 1:00 24
Sa, 19.01. 19:00 24
Sa, 19.01. 13:00 24
Sa, 19.01. 7:00 24
Sa, 19.01. 1:00 24
Ortszeit Schneehöhe (cm)
Mo, 21.01. 0:00 23
So, 20.01. 23:50 23
So, 20.01. 23:40 23
So, 20.01. 23:30 23
So, 20.01. 23:20 23
So, 20.01. 23:10 23
So, 20.01. 23:00 23
So, 20.01. 22:30 23
So, 20.01. 22:00 23
So, 20.01. 21:30 23
So, 20.01. 21:00 23
Link zu dieser Seite / Seite empfehlen

Das Wetter in ...